THORAD AGENA D DEB, 4613

Orbit data source: Space-Track

THORAD AGENA D DEB, 4613 is space debris in SSO originally from a launch on Wed, 08 Apr 1970 UTC launched from the Air Force Western Test Range (AFWTR). Debris objects in space refer to the collection of defunct objects orbiting the Earth. Examples of debris include non-operational satellites, rocket bodies, and fragments generated from explosions, collisions, or faulty payload assembly.

Loading next visibility...
Identifier
4613, 1970-025R
Orbit
SSO
Country
Flag of USUS
Related business
Manufacturer
Unknown
Mission
Spacecraft
Bus & Motor
Unknown
Mass
Unknown
Launch date (UTC)
1970-04-08 (56 years ago)
Launch vehicle
Unknown
Launch site
Air Force Western Test Range (AFWTR)
Object type
Payload
Rocket body
Debris
Shape & HBR
Unknown shape, 0.1 m
Radar Cross Section
Medium (>0.1 m² and <1 m²)

Expand to show TLE details & history
Last TLE update: 19 hours ago

TLE from 19 hours ago
0 THORAD AGENA D DEB
1 04613U 70025R   25352.56131047  .00001521  00000-0  64283-3 0  9997
2 04613  98.6019  26.0040 0084831 335.8890  23.8328 14.25095319835372
Epoch: 2025-12-18T13:28Z
TLE epoch observation values (Epoch: 2025-12-18T13:28:17.224Z)
Latitude
-0.00011°
Longitude
96.5172°
Altitude
755.408 km
Speed
7.506 km/s
True Right ascension
01h 44m 00s
True Declination
0° 00' 00"
Sunlit
Object was in partial shadow at epoch
Visualization orbit readout
Latitude
Unknown
Longitude
Unknown
Altitude
Unknown
Speed
Unknown
Apparent Right ascension
Unknown
Apparent Declination
Unknown
Sunlit
N/A
Visualization observer readout
Local Sidereal Time
07:32:28
Azimuth
Unknown
Elevation
Unknown
Doppler factor
Unknown
Orbital elements
Apogee altitude
866.256 km
Perigee altitude
744.381 km
Semi-major axis
7,183.456 km
Eccentricity
0.00848
Inclination
98.6019°
RAAN
26.004°
Arg. of periapsis
335.889°
True anomaly
24.22943°
Mean anomaly
23.8328°
Eccentric anomaly
24.03073°
Mean motion
3.56486 °/min
Orbital period
100.99 mins
BSTAR
0.00064283
Loading maneuver chart data...
Computing Atmospheric mass density...

Documentation

Showing up to 5 results
|